Time,TemperatureF,DewpointF,PressureIn,WindDirection,WindDirectionDegrees,WindSpeedMPH,WindSpeedGustMPH,Humidity,HourlyPrecipIn,Conditions,Clouds,dailyrainin,SoftwareType,DateUTC
2013-06-28 00:02:00,56.0,45.0,-100.00,East,86,11.0,12.0,65,0.00,,,-99.99,,2013-06-28 06:02:00,
2013-06-28 00:42:00,56.0,45.0,-100.00,East,85,11.0,14.0,65,0.00,,,-99.99,,2013-06-28 06:42:00,
2013-06-28 01:42:00,56.0,44.0,-100.00,East,86,9.0,11.0,64,0.00,,,-99.99,,2013-06-28 07:42:00,
2013-06-28 02:01:00,56.0,44.0,-100.00,East,82,7.0,9.0,64,0.00,,,-99.99,,2013-06-28 08:01:00,
2013-06-28 02:33:00,56.0,44.0,-100.00,East,85,7.0,9.0,63,0.00,,,-99.99,,2013-06-28 08:33:00,
2013-06-28 02:43:00,57.0,44.0,-100.00,East,90,6.0,7.0,61,0.00,,,-99.99,,2013-06-28 08:43:00,
2013-06-28 02:52:00,57.0,44.0,-100.00,East,89,6.0,7.0,61,0.00,,,-99.99,,2013-06-28 08:52:00,
2013-06-28 03:02:00,58.0,44.0,-100.00,East,89,5.0,6.0,60,0.00,,,-99.99,,2013-06-28 09:02:00,
2013-06-28 03:42:00,57.0,43.0,-100.00,NW,312,1.0,2.0,60,0.00,,,-99.99,,2013-06-28 09:42:00,
2013-06-28 04:02:00,56.0,44.0,-100.00,WNW,296,2.0,3.0,62,0.00,,,-99.99,,2013-06-28 10:02:00,
2013-06-28 04:42:00,55.0,43.0,-100.00,West,272,3.0,4.0,64,0.00,,,-99.99,,2013-06-28 10:42:00,
2013-06-28 05:43:00,55.0,42.0,-100.00,West,280,4.0,6.0,63,0.00,,,-99.99,,2013-06-28 11:43:00,
2013-06-28 06:43:00,58.0,43.0,-100.00,NW,309,2.0,3.0,57,0.00,,,-99.99,,2013-06-28 12:43:00,
2013-06-28 08:01:00,60.0,44.0,-100.00,ENE,75,7.0,9.0,55,0.00,,,-99.99,,2013-06-28 14:01:00,
2013-06-28 09:43:00,62.0,44.0,-100.00,ENE,68,11.0,14.0,52,0.00,,,-99.99,,2013-06-28 15:43:00,
2013-06-28 10:44:00,64.0,45.0,-100.00,ENE,65,12.0,17.0,50,0.00,,,-99.99,,2013-06-28 16:44:00,
2013-06-28 11:44:00,65.0,45.0,-100.00,ENE,59,16.0,22.0,49,0.00,,,-99.99,,2013-06-28 17:44:00,
2013-06-28 12:43:00,66.0,47.0,-100.00,ENE,65,16.0,22.0,51,0.00,,,-99.99,,2013-06-28 18:43:00,
2013-06-28 14:43:00,68.0,44.0,-100.00,ENE,59,17.0,24.0,42,0.00,,,-99.99,,2013-06-28 20:43:00,
2013-06-28 14:52:00,69.0,45.0,-100.00,ENE,62,16.0,23.0,43,0.00,,,-99.99,,2013-06-28 20:52:00,
2013-06-28 15:01:00,67.0,42.0,-100.00,NE,51,16.0,22.0,40,0.00,,,-99.99,,2013-06-28 21:01:00,
2013-06-28 17:43:00,67.0,45.0,-100.00,NE,55,17.0,24.0,44,0.00,,,-99.99,,2013-06-28 23:43:00,
2013-06-28 17:53:00,67.0,45.0,-100.00,NE,54,16.0,21.0,45,0.00,,,-99.99,,2013-06-28 23:53:00,
2013-06-28 18:02:00,67.0,45.0,-100.00,ENE,59,16.0,21.0,45,0.00,,,-99.99,,2013-06-29 00:02:00,
2013-06-28 18:52:00,66.0,45.0,-100.00,NE,54,16.0,22.0,47,0.00,,,-99.99,,2013-06-29 00:52:00,
2013-06-28 19:01:00,66.0,45.0,-100.00,NE,51,15.0,21.0,48,0.00,,,-99.99,,2013-06-29 01:01:00,
2013-06-28 19:11:00,65.0,45.0,-100.00,NE,56,14.0,18.0,48,0.00,,,-99.99,,2013-06-29 01:11:00,
2013-06-28 19:22:00,65.0,46.0,-100.00,ENE,58,16.0,20.0,50,0.00,,,-99.99,,2013-06-29 01:22:00,
2013-06-28 19:31:00,65.0,46.0,-100.00,NE,54,16.0,21.0,50,0.00,,,-99.99,,2013-06-29 01:31:00,
2013-06-28 19:42:00,65.0,46.0,-100.00,NE,47,15.0,20.0,50,0.00,,,-99.99,,2013-06-29 01:42:00,
2013-06-28 19:51:00,65.0,46.0,-100.00,NE,56,15.0,19.0,50,0.00,,,-99.99,,2013-06-29 01:51:00,
2013-06-28 20:01:00,64.0,45.0,-100.00,ENE,59,15.0,19.0,50,0.00,,,-99.99,,2013-06-29 02:01:00,
2013-06-28 20:10:00,63.0,46.0,-100.00,ENE,58,12.0,16.0,52,0.00,,,-99.99,,2013-06-29 02:10:00,
2013-06-28 20:21:00,63.0,45.0,-100.00,ENE,59,14.0,17.0,52,0.00,,,-99.99,,2013-06-29 02:21:00,
2013-06-28 20:31:00,63.0,46.0,-100.00,ENE,58,12.0,16.0,54,0.00,,,-99.99,,2013-06-29 02:31:00,
2013-06-28 20:41:00,62.0,46.0,-100.00,ENE,59,11.0,14.0,55,0.00,,,-99.99,,2013-06-29 02:41:00,
2013-06-28 20:51:00,62.0,46.0,-100.00,ENE,61,10.0,12.0,56,0.00,,,-99.99,,2013-06-29 02:51:00,
2013-06-28 21:01:00,61.0,46.0,-100.00,ENE,66,11.0,13.0,58,0.00,,,-99.99,,2013-06-29 03:01:00,
2013-06-28 21:11:00,60.0,46.0,-100.00,ENE,64,9.0,11.0,59,0.00,,,-99.99,,2013-06-29 03:11:00,
2013-06-28 21:21:00,60.0,46.0,-100.00,ENE,66,9.0,11.0,58,0.00,,,-99.99,,2013-06-29 03:21:00,
2013-06-28 21:32:00,61.0,45.0,-100.00,ENE,65,9.0,11.0,57,0.00,,,-99.99,,2013-06-29 03:32:00,
2013-06-28 21:41:00,60.0,45.0,-100.00,ENE,68,9.0,9.0,57,0.00,,,-99.99,,2013-06-29 03:41:00,
2013-06-28 21:51:00,59.0,45.0,-100.00,ENE,78,9.0,10.0,60,0.00,,,-99.99,,2013-06-29 03:51:00,
2013-06-28 22:01:00,-999.0,-99.9,-100.00,East,79,9.0,10.0,-999,-99.99,,,-99.99,,2013-06-29 04:01:00,
2013-06-28 22:11:00,59.0,45.0,-100.00,ENE,72,9.0,11.0,58,0.00,,,-99.99,,2013-06-29 04:11:00,
2013-06-28 22:22:00,58.0,44.0,-100.00,ENE,75,9.0,11.0,60,0.00,,,-99.99,,2013-06-29 04:22:00,
2013-06-28 22:41:00,59.0,44.0,-100.00,East,79,9.0,12.0,58,0.00,,,-99.99,,2013-06-29 04:41:00,
2013-06-28 22:51:00,59.0,44.0,-100.00,ENE,75,9.0,11.0,58,0.00,,,-99.99,,2013-06-29 04:51:00,
2013-06-28 23:01:00,59.0,44.0,-100.00,ENE,68,9.0,11.0,58,0.00,,,-99.99,,2013-06-29 05:01:00,
2013-06-28 23:10:00,58.0,44.0,-100.00,ENE,65,9.0,12.0,58,0.00,,,-99.99,,2013-06-29 05:10:00,
2013-06-28 23:21:00,58.0,44.0,-100.00,ENE,71,9.0,10.0,58,0.00,,,-99.99,,2013-06-29 05:21:00,
2013-06-28 23:31:00,59.0,44.0,-100.00,ENE,68,9.0,9.0,57,0.00,,,-99.99,,2013-06-29 05:31:00,
2013-06-28 23:41:00,59.0,43.0,-100.00,ENE,61,7.0,9.0,55,0.00,,,-99.99,,2013-06-29 05:41:00,
2013-06-28 23:51:00,59.0,43.0,-100.00,NE,56,7.0,8.0,55,0.00,,,-99.99,,2013-06-29 05:51:00,